Tracking 25709 objects as of 23-May-2022
HD Live streaming from Space Station
objects crossing your sky now

COSMOS 2251 DEB

Track COSMOS 2251 DEB now!
10-day predictions


NORAD ID: 33999
Int'l Code: 1993-036GJ
Perigee: 664.9 km
Apogee: 766.8 km
Inclination: 73.9 °
Period: 99.0 minutes
Semi major axis: 7086 km
RCS: 0.0543 m2 (small)
Launch date: June 16, 1993
Source: Commonwealth of Independent States (former USSR) (CIS)
Launch site: PLESETSK MISSILE AND SPACE COMPLEX (PKMTR)

Note: This is SATELLITE DEBRIS
aabbcc
Your satellite tracking list
Your tracking list is empty




NASA's NSSDC Master Catalog

Two Line Element Set (TLE):
1 33999U 93036GJ  22142.74410751  .00004906  00000-0  11015-2 0  9993
2 33999  73.9367 231.0351 0071940  60.0172 300.8105 14.55200193702031
Source of the keplerian elements: AFSPC